Other Public Products
Issued by NWS Grand Forks, ND

Home | Current Version | Previous Version | Graphics & Text | Print | Product List | Glossary On
Versions: 1 2 3 4 5 6 7 8 9 10 11 12 13 14 15 16 17 18 19 20 21 22 23 24 25 26 27 28 29 30 31 32 33 34 35 36 37 38 39 40 41 42 43 44 45 46 47 48 49 50
000
FPUS83 KFGF 081931
OPUFGF
PRAIRIE TO PINES WEATHER ROUNDUP
NATIONAL WEATHER SERVICE EASTERN NORTH DAKOTA/GRAND FORKS ND
100 PM CST THU DEC 08 2016

 **SATELLITE DATA USED TO AUGMENT SKY COVER AT AUTOMATED STATIONS**
 *****  WEATHER ACROSS EASTERN NORTH DAKOTA  *****

CITY           SKY/WX    TMP DP  RH WIND       PRES   REMARKS
GRAND FORKS    LGT SNOW  16  10  77 NW21      30.54R WCI  -1
GRAND FORKS AF FLURRIES  14   9  79 NW16      30.54R WCI  -2
GRAND CITY NWS NOT AVBL
BUXTON           N/A     36  34  94 NW16        N/A
DEVILS LAKE    SUNNY      4  -1  80 NW18      30.55F WCI -16
FARGO          LGT SNOW  17  11  77 NW18      30.53S VSB 1   WCI   1
WAHPETON ARPT  CLOUDY    14   9  79 NW21      30.53S WCI  -4
$$

 *****  WEATHER ACROSS CENTRAL AND WESTERN NORTH DAKOTA  *****

CITY           SKY/WX    TMP DP  RH WIND       PRES   REMARKS
JAMESTOWN      CLOUDY     5  -1  76 NW22G30   30.56S HAZE    WCI -16
BISMARCK       PTSUNNY    5  -2  72 NW13      30.63F WCI -12
MINOT          SUNNY      1  -6  72 W16       30.61F WCI -19
MINOT AFB      SUNNY     -1  -8  74 NW18      30.61S WCI -23
GARRISON         N/A      1  -7  68 NW20      30.60F WCI -20
WILLISTON      MOSUNNY   -2  -9  72 NW10      30.66F WCI -19
DICKINSON      MOSUNNY   -1  -7  75 W18       30.55F WCI -22
HETTINGER      PTSUNNY    1  -6  72 NW13      30.57F WCI -17
$$

 *****  OTHER OBSERVATIONS NORTHEAST NORTH DAKOTA  *****

CITY           SKY/WX    TMP DP  RH WIND       PRES   REMARKS
WALHALLA       FLURRIES  12  12 100 NW20      30.56R WCI  -6
LANGDON        MOCLDY     9   5  85 NW15      30.51S HAZE    WCI  -8
CAVALIER       LGT SNOW  14   9  79 NW18      30.55S WCI  -3
GRAFTON        LGT SNOW  14  10  85 N16       30.56S WCI  -2
CANDO          MOCLDY     5   0  78 NW13      30.58S WCI -12
FORT TOTTEN      N/A      8   4  84 NW10      29.95S WCI  -6
ROLLA          FLURRIES   3   0  85 NW16      30.53S WCI -16
RUGBY            N/A      0  -4  85 NW16      30.58S WCI -21
 ***** THE ABOVE OBSERVATIONS ARE NON NWS ARE NOT QUALITY
        CONTROLLED AND MAY MIS-REPORT RAIN FOR SNOW...
$$

 *****  OTHER OBSERVATIONS SOUTHEAST NORTH DAKOTA *****

CITY           SKY/WX    TMP DP  RH WIND       PRES   REMARKS
COOPERSTOWN    CLOUDY     7   3  85 NW21      30.54S HAZE    WCI -13
VALLEY CITY    FLURRIES   7   1  78 NW20      30.56S WCI -13
OAKES          NOT AVBL
GWINNER        MOCLDY    14   9  79 W22       30.55F WCI  -4
SHEYENNE NWR     N/A     12   4  71 NW14      29.95S WCI  -3
BUFFALO          N/A      9   4  78 N14G26      N/A  WCI  -7
WYNDMERE         N/A     14   9  79 NW18        N/A  WCI  -3
 ***** THE ABOVE OBSERVATIONS ARE NON NWS ARE NOT QUALITY
       CONTROLLED AND MAY MIS-REPORT RAIN FOR SNOW...
$$

  *****  WEATHER ACROSS NORTHERN MINNESOTA  *****

CITY           SKY/WX    TMP DP  RH WIND       PRES   REMARKS
FLAG ISLAND    MOSUNNY   18   9  68 NW26      30.41S WCI  -1
WARROAD        FLURRIES  18  12  79 NW13      30.44S WCI   4
ROSEAU         CLOUDY    18  12  79 NW10      30.45S WCI   6
HALLOCK        CLOUDY    16  10  79 NW13G20   30.52S WCI   2
THF RVR FALLS  CLOUDY    18  13  80 NW16      30.47R WCI   3
HALSTAD          N/A     15  10  83 NW17        N/A  WCI  -2
FOSSTON        CLOUDY    18  10  73 NW15      30.44R WCI   3
BAUDETTE       CLOUDY    20  10  65 NW17      30.38R WCI   5
WASKISH        FLURRIES  21  16  79 NW13      30.39R WCI   9
CROOKSTON      CLOUDY    16  12  86 N22       30.51S FOG     WCI  -2
$$
  *****  WEATHER ACROSS CENTRAL AND WEST MINNESOTA  *****

CITY           SKY/WX    TMP DP  RH WIND       PRES   REMARKS
BEMIDJI        LGT SNOW  18  13  82 NW13      30.39R WCI   5
PARK RAPIDS    LGT SNOW  18   8  65 NW12      30.38S WCI   5
WADENA         FLURRIES  16   9  73 NW15      30.41R WCI   1
DETROIT LAKES  LGT SNOW  16  12  86 NW17G24   30.46R WCI   0
MOORHEAD       MIX PCPN  16  10  79 NW20      30.53R WCI  -1
FERGUS FALLS   LGT SNOW  14  10  85 NW24      30.54R WCI  -5
ELBOW LAKE     LGT SNOW  14  11  87 W18G25    30.49R VSB 1   WCI  -3
MORRIS MN      LGT SNOW  16   9  73 NW23G32   30.48S WCI  -2
STAPLES        FLURRIES  18  10  73 W15       30.40R WCI   3
WHEATON        CLOUDY    16  10  79 W18       30.55S HAZE    WCI  -1
$$
  *****  WEATHER ELSEWHERE ACROSS MINNESOTA  *****

CITY           SKY/WX    TMP DP  RH WIND       PRES   REMARKS
DULUTH         CLOUDY    22  15  75 NW17G26   30.24R WCI   8
INTRNTL FALLS  MOSUNNY   19  10  68 NW15G25   30.32R WCI   5
ELY            FLURRIES  19  12  73 NW10G17   30.24R WCI   8
CLOQUET        CLOUDY    21  16  79 W16G23    30.28R WCI   7
BRAINERD       CLOUDY    20  11  68 NW14      30.37R WCI   7
HIBBING        CLOUDY    20  14  77 NW14      30.28R WCI   7
ALEXANDRIA     LGT SNOW  16  10  77 NW15      30.43S WCI   1
SAINT CLOUD    FLURRIES  20  13  74 NW21      30.39S WCI   4
MINNEAPOLIS    FLURRIES  24  14  65 NW15      30.38R WCI  11
$$

  *****  WEATHER ACROSS SOUTH DAKOTA  *****

CITY           SKY/WX    TMP DP  RH WIND       PRES   REMARKS
SIOUX FALLS    PTSUNNY   18   8  65 NW21G31   30.54F WCI   1
BROOKINGS      CLOUDY    12   6  77 MISG      30.50F
WATERTOWN      CLOUDY    11   5  77 NW20      30.51S WCI  -7
HURON          CLOUDY    16   6  65 NW17      30.61F WCI   0
SISSETON         N/A     14   7  73 NW21      30.53S WCI  -4
ABERDEEN       CLOUDY    14   4  64 NW18      30.59F WCI  -3
MITCHELL       SUNNY     18   5  57 NW16      30.62F WCI   3
PIERRE         PTSUNNY    7   1  76 NW17      30.64F WCI -12
MOBRIDGE       MOSUNNY    4  -4  69 NW17      30.61F WCI -16
RAPID CITY     SUNNY     13  -3  49 N9        30.52F WCI   1
$$

  *****  SOME WEATHER IN NEARBY STATES *****

CITY           SKY/WX    TMP DP  RH WIND       PRES   REMARKS
GLASGOW MT     PTSUNNY    2  -5  72 W3        30.61F
GREAT FALLS MT CLOUDY     0  -7  72 VRB3      30.44F
CHEYENNE WY    SUNNY      8   1  73 S10       30.27F WCI  -6
SCOTTSBLUFF NE SUNNY     13  -3  49 CALM      30.48F
OMAHA NE       MOSUNNY   23   8  52 NW21      30.60F WCI   8
DES MOINES IA  PTSUNNY   22   9  57 NW21G29   30.50F WCI   6
DAVENPORT IA   FLURRIES  20  13  74 W24       30.40S WCI   3
CHICAGO IL     CLOUDY    20  12  71 W18G26    30.28R WCI   5
EAU CLAIRE WI  CLOUDY    24  15  68 NW15      30.29R WCI  11
LA CROSSE WI   CLOUDY    26  16  65 NW14      30.33R WCI  14
$$

  *****  SOME NATIONAL WEATHER *****

CITY           SKY/WX    TMP DP  RH WIND       PRES   REMARKS
LA GUARDIA NY  PTSUNNY   45  22  40 NW18      29.88F
RALEIGH NC     PTSUNNY   50  17  27 NW8G20    30.08F
ATLANTA GA     CLOUDY    48  23  37 NW13G21   30.26R
NEW ORLEANS LA CLOUDY    50  43  77 N12G21    30.31F
OKLAHOMA CITY  MOSUNNY   30   6  36 N16G24    30.66F WCI  19
ALBUQUERQUE NM MOSUNNY   33  14  45 VRB3      30.38F
SALT LAKE CITY CLOUDY    30   9  41 S9        30.22F WCI  22
LOS ANGELES CA PTSUNNY   64  43  46 CALM      30.25F
BOISE ID       LGT SNOW  22  18  85 SE6       30.20F VSB 3/4 WCI  14
SEATTLE WA     PTSUNNY   35  11  36 E14       30.04F
$$

*** WEATHER ACROSS MANITOBA...SASKATCHEWAN AND ONTARIO ***
                ***ONTARIO***

CITY           SKY/WX    TMP DP  RH WIND       PRES   REMARKS
GERALDTON      SNOWSHWR  16  10  79 NW13G21   30.06R WCI   2
THUNDER BAY    FLURRIES  23  14  68 NW15G25   30.18R WCI  10
SIOUX LOOKOUT  SNOWSHWR  14   9  79 N8G18     30.29R DRFTSNOWWCI   3
TORONTO        PTSUNNY   30  16  55 W21G29    29.91S WCI  17
BIG TROUT LK   FLURRIES   9   5  85 N10G21    30.28R WCI  -6
PICKLE LAKE    FLURRIES   7   3  85 VRB9G18   30.24R WCI  -7
DRYDEN         FLURRIES  14   9  79 NW8       30.30R WCI   3
KENORA         FLURRIES  12   7  79 N15       30.37R WCI  -4
$$
                *** MANITOBA***

CITY           SKY/WX    TMP DP  RH WIND       PRES   REMARKS
BRANDON        FLURRIES   7   0  72 NW15      30.57S WCI -11
DAUPHIN        CLOUDY     1  -2  85 NE8       30.61S WCI -12
ISLAND LAKE    NOT AVBL
PILOT MOUND      N/A      5   1  85 NW12        N/A  WCI -11
THE PAS        FLURRIES  -4  -9  77 NW9       30.64F WCI -20
THOMPSON       MOSUNNY  -11 -20  64 NW9       30.62S WCI -29
WINNIPEG       FLURRIES  12   5  73 N14       30.55R WCI  -3
LYNN LAKE      SUNNY    -11 -17  77 NW10      30.66S WCI -30
CHURCHILL      LGT SNOW  -4  -8  84 NW25G31   30.53S BLWGSNOWWCI -30
GILLAM         CLOUDY   -11 -17  77 NW13      30.55R WCI -32
$$
                ***SASKATCHEWAN***

CITY           SKY/WX    TMP DP  RH WIND       PRES   REMARKS
ESTEVAN        LGT SNOW   0  -6  78 W14       30.61S WCI -19
KINDERSLEY     CRYSTALS  -8 -13  77 N3        30.63F FOG
LLOYDMINSTER   FLURRIES  -8 -11  84 NW9       30.66F WCI -25
PRINCE ALBERT  PTSUNNY   -6 -15  65 NW10      30.69F WCI -23
REGINA         MOSUNNY    0  -8  71 NW13      30.62F WCI -18
YORKTON        PTSUNNY    0  -8  71 NW15      30.58S WCC1F1C2F2C3F3C4F4C5F5C6F6C7F7C8F8C9F9CaFaCbFbCcFcCdFdCe!



USA.gov is the U.S. government's official web portal to all federal, state and local government web resources and services.